Weather History for Olympia, WA

Change the Weather History Date:

Tuesday, September 3, 2013

  Actual Average Record
Temperature  
Mean Temperature 66 °F 62 °F  
Max Temperature 75 °F 75 °F 91 °F (1972)
Min Temperature 57 °F 48 °F 36 °F (1956)
Degree Days  
Heating Degree Days 0 4  
Month to date heating degree days 0 11  
Since 1 July heating degree days 77 161  
Cooling Degree Days 1 1  
Month to date cooling degree days 8 3  
Year to date cooling degree days 129 102  
Growing Degree Days 17 (Base 50)    
Moisture  
Dew Point 58 °F    
Average Humidity 77    
Maximum Humidity 97    
Minimum Humidity 57    
Precipitation  
Precipitation 0.71 in 0.05 in 0.71 in (2013)
Month to date precipitation 0.72 0.14  
Year to date precipitation 23.98 27.74  
Sea Level Pressure  
Sea Level Pressure 29.99 in    
Wind  
Wind Speed 2 mph (NE)    
Max Wind Speed 9 mph    
Max Gust Speed 11 mph    
Visibility 7 miles    
Events Rain    
T = Trace of Precipitation, MM = Missing Value Source: NWS Daily Summary

Daily Weather History Graph

Daily Weather History Graph

Search for Another Location

Airport:

Trip Planner

Search our weather history database for the weather conditions in past years. The results will help you decide how hot, cold, wet, or windy it might be!

Date:

Astronomy

Sep. 03, 2013 Rise Set
Actual Time 6:34 AM PDT 7:46 PM PDT
Civil Twilight 6:02 AM PDT 8:17 PM PDT
Nautical Twilight 5:24 AM PDT 8:55 PM PDT
Astronomical Twilight 4:44 AM PDT 9:35 PM PDT
Moon 4:50 AM PDT (9/3) 6:37 PM PDT (9/3)
Length of Visible Light 14h 15m
Length of Day
13h 12m
Waning Crescent, 3% of the Moon is Illuminated
Sep 3
Waning Crescent
Sep 5
New
Sep 12
First Quarter
Sep 19
Full
Sep 26
Last Quarter

Hourly Weather History & Observations

Time (PDT) Temp. Dew Point Humidity Pressure Visibility Wind Dir Wind Speed Gust Speed Precip Events Conditions
12:54 AM 60.1 °F 57.9 °F 93% 29.96 in 10.0 mi Calm Calm - N/A   Mostly Cloudy
1:54 AM 62.1 °F 57.0 °F 84% 29.96 in 10.0 mi East 3.5 mph - N/A   Partly Cloudy
2:54 AM 60.1 °F 57.9 °F 93% 29.96 in 4.0 mi ENE 5.8 mph - 0.11 in Rain Rain
3:54 AM 60.1 °F 57.9 °F 93% 29.97 in 5.0 mi East 4.6 mph - 0.12 in Rain Light Rain
4:15 AM 59.0 °F 57.9 °F 96% 29.96 in 2.0 mi North 3.5 mph - 0.09 in Rain Rain
4:25 AM 59.0 °F 57.9 °F 96% 29.96 in 4.0 mi ENE 3.5 mph - 0.12 in Rain Rain
4:54 AM 59.0 °F 57.9 °F 96% 29.98 in 5.0 mi Calm Calm - 0.15 in Rain Light Rain
5:23 AM 59.0 °F 57.9 °F 96% 29.97 in 5.0 mi Calm Calm - 0.05 in Rain Light Rain
5:54 AM 59.0 °F 57.9 °F 96% 29.97 in 3.0 mi Calm Calm - 0.08 in Rain Rain
6:02 AM 59.0 °F 57.9 °F 96% 29.97 in 3.0 mi Calm Calm - 0.02 in Rain Rain
6:07 AM 59.0 °F 57.9 °F 96% 29.96 in 4.0 mi NW 3.5 mph - 0.02 in Rain Light Rain
6:14 AM 59.0 °F 57.9 °F 96% 29.96 in 5.0 mi NNE 3.5 mph - 0.03 in Rain Rain
6:25 AM 59.0 °F 57.9 °F 96% 29.97 in 8.0 mi Calm Calm - 0.03 in Rain Light Rain
6:54 AM 59.0 °F 57.9 °F 96% 29.98 in 3.0 mi Calm Calm - 0.05 in Rain Rain
7:01 AM 59.0 °F 57.9 °F 96% 29.98 in 2.5 mi Calm Calm - 0.03 in Rain Rain
7:18 AM 59.0 °F 57.9 °F 96% 29.99 in 3.0 mi East 4.6 mph - 0.09 in Rain Rain
7:32 AM 59.0 °F 57.9 °F 96% 29.98 in 2.5 mi North 3.5 mph - 0.14 in Rain Rain
7:43 AM 59.0 °F 57.9 °F 96% 29.99 in 1.5 mi NNE 3.5 mph - 0.19 in Rain Rain
7:49 AM 59.0 °F 57.2 °F 94% 29.99 in 3.0 mi NE 3.5 mph - 0.20 in Rain Light Rain
7:54 AM 60.1 °F 57.9 °F 93% 29.99 in 3.0 mi Calm Calm - 0.20 in Rain Light Rain
8:20 AM 60.1 °F 57.9 °F 93% 29.99 in 6.0 mi NE 3.5 mph - 0.00 in Rain Light Rain
8:54 AM 60.1 °F 57.9 °F 93% 29.99 in 6.0 mi North 5.8 mph - 0.00 in Rain Light Rain
9:54 AM 62.1 °F 57.9 °F 86% 30.00 in 6.0 mi North 3.5 mph - 0.00 in   Overcast
10:54 AM 64.0 °F 59.0 °F 84% 30.00 in 10.0 mi North 3.5 mph - N/A   Mostly Cloudy
11:54 AM 66.0 °F 59.0 °F 78% 30.01 in 10.0 mi Calm Calm - N/A   Overcast
12:54 PM 66.9 °F 60.1 °F 79% 30.01 in 10.0 mi ENE 4.6 mph - N/A   Overcast
1:54 PM 68.0 °F 60.1 °F 76% 30.02 in 10.0 mi Calm Calm - N/A   Overcast
2:17 PM 69.1 °F 59.0 °F 70% 30.02 in 10.0 mi Calm Calm - N/A   Overcast
2:54 PM 71.1 °F 59.0 °F 66% 30.01 in 10.0 mi NNE 4.6 mph - N/A   Mostly Cloudy
3:54 PM 72.0 °F 60.1 °F 66% 30.01 in 10.0 mi Calm Calm - N/A   Mostly Cloudy
4:54 PM 75.0 °F 60.1 °F 60% 30.00 in 10.0 mi NNE 8.1 mph - N/A   Scattered Clouds
5:54 PM 73.9 °F 57.9 °F 57% 29.99 in 10.0 mi Calm Calm - N/A   Scattered Clouds
6:54 PM 73.0 °F 59.0 °F 61% 29.99 in 10.0 mi NNE 5.8 mph - N/A   Partly Cloudy
7:54 PM 66.9 °F 57.9 °F 73% 29.99 in 10.0 mi NW 3.5 mph - N/A   Clear
8:54 PM 63.0 °F 59.0 °F 87% 30.01 in 10.0 mi Calm Calm - N/A   Clear
9:54 PM 60.1 °F 57.9 °F 93% 30.02 in 10.0 mi SE 4.6 mph - N/A   Clear
10:54 PM 60.1 °F 59.0 °F 96% 30.03 in 10.0 mi Calm Calm - N/A   Mostly Cloudy
11:54 PM 59.0 °F 57.0 °F 93% 30.03 in 10.0 mi Calm Calm - N/A   Scattered Clouds